Вернуться в каталог

JTSY

АктивенНаукаPO
NORAD 49318·PAYLOAD·🇨🇳 China
Это название спутника еще не подтверждено официальными источниками.

Запущен Oct 14, 2021 с Taiyuan Satellite Launch Center

Loading…

Ближайшие Пролёты (ближайшие 24 часа)

TLE

СвежийSource: Space-Track

Эпоха: Sep 14, 2026, 14:18 UTC

1 49318U 21091D   26257.59601625 -.00000116  00000-0 -57248-4 0  9994
2 49318  97.4473 273.8831 0013330  83.8855 276.3833 14.00159084260596

Отслеживайте JTSY в реальном времени с AllMySat

Download on the App Store